sat.trackr.live / text

‹ back to catalog

STARLINK-6258

NORAD 56413 · 2023-061AR

PAYLOAD ACTIVE UNKNOWN

§ Identity

Operator
Country
US
Launch date
2023-05-04
Launch site
AFETR
Launch vehicle
Mass (kg)
RCS (m²)

Purposes: comms

External: N2YO · Heavens-Above · Gunter

§ Orbital elements

Epoch: 2026-05-25T05:15:43.135200Z

Period
94.27 min
Inclination
43.0005°
Eccentricity
0.0000647
Mean motion
15.27572959 rev/d
Perigee alt
482.6 km
Apogee alt
483.5 km
Semi-major
6,861.2 km
B*
1.1518e-5
RAAN
115.2758°
Arg perigee
291.0715°
Mean anomaly
69.0067°
Rev number
16,857

§ Raw data

STARLINK-62581 56413U 23061AR  26145.21924925  .00000055  00000+0  11518-4 0  99922 56413  43.0005 115.2758 0000647 291.0715  69.0067 15.27572959168571

JSON: /api/v1/satellites/56413 · /tle

For live sub-satellite position, see the globe view (requires WebGL).

§ Visibility from observer

Set your observer location to see the next 7 days of passes ≥ 10°. The values pass through the URL so the page stays shareable.

No JS? Fill the form by hand. The geolocation button needs JavaScript.